LEMUR-2-ELHAM (44086 NORAD) Tracking and Keplerian Element Data

This shows tracking and keplerian element data for the satellite.

Feedback or suggestion? Click here.




ElementValue
Catalog44086
NameLEMUR-2-ELHAM
Epoch Orbit305
Epoch Day111.46373423
Epoch Year2019
RAAN171.8461
Inclination97.4626
Eccentricity0.0013238
Argument of Perigee205.6081
Mean Anonmoly154.45
Mean Motion15.21481219
Decay Rate2.046E-05
L11 44086U 19018J 19111.46373423 .00002046 00000-0 93966-4 0 9995
L22 44086 97.4626 171.8461 0013238 205.6081 154.4500 15.21481219 3056

Live tracking and technical data element details for LEMUR-2-ELHAM (NORAD 44086). LEMUR-2-ELHAM can be tracked NOW for your location showing map with azimuth and elevation plus other details from your city location.

Track the satellite on the map from your city or location and see movement details for azimuth, elevation, latitude, longitude, range, height, and movement on the map or in text.







IsCatalogInMostPopularTable: catalog: 44086, numindb: 2
Update: records affected: 1



GetName: 44086 LEMUR-2-ELHAM

Hit Count: updated at: Tue, 23 Apr 2019 01:53:32 GMT